Location: Newark
(43.0658°N, 122.2322°W)
Time: 09:22:02
(UTC+00:00)

STARLINK-1547 - Pass Details

Date: 21 September 2020
Orbit: 378 x 381 km, 53.0° (Epoch: 24 October)

Event Time Altitude Azimuth Distance (km) Brightness Sun altitude
Exits shadow 12:04:39 15° 347° (NNW) 1,145 5.3 -20.6°
Maximum altitude 12:04:49 15° 350° (N) 1,144 5.4 -20.6°
Drops below altitude 10° 12:06:43 10° 28° (NNE) 1,401 6.4 -20.3°
Sets 12:09:25 0° 53° (NE) 2,255 8.1 -19.8°
